Tracking 35274 objects as of 10-Sep-2026
HD Live streaming from Space Station
objects crossing your sky now

TITAN 3D DEB


TITAN 3D DEB is no longer on orbit


NORAD ID: 11689
Int'l Code: 1980-010C
Launch date: February 7, 1980
Source: United States (US)
Launch site: AIR FORCE WESTERN TEST RANGE (AFWTR)
Decay date: 1980-02-08

Note: This is SATELLITE DEBRIS
Your satellite tracking list
Your tracking list is empty




NASA's NSSDC Master Catalog

Two Line Element Set (TLE):
1 11689U 80010C   80039.30584898 -.00000064 +00000-0 +00000-0 0  9990
2 11689 096.9842 150.6337 0204664 180.1562 179.9673 15.68003738000075
Source of the keplerian elements: AFSPC